Date,TemperatureHighF,TemperatureAvgF,TemperatureLowF,DewpointHighF,DewpointAvgF,DewpointLowF,HumidityHigh,HumidityAvg,HumidityLow,PressureMaxIn,PressureMinIn,WindSpeedMaxMPH,WindSpeedAvgMPH,GustSpeedMaxMPH,PrecipitationSumIn
2013-1-22,76.5,69.4,62.8,64.7,61.0,55.9,94,76,60,30.21,30.01,8,3,0,0.00
2013-1-23,74.9,70.0,61.8,58.1,55.8,52.8,84,61,51,30.29,30.18,7,4,0,0.00
2013-1-24,76.2,66.4,59.0,59.4,56.0,52.9,88,71,53,30.30,30.19,5,2,0,0.00
2013-1-25,76.7,67.8,59.9,63.1,57.0,51.9,88,69,50,30.29,30.17,4,1,0,0.00
2013-1-26,78.0,69.4,59.7,64.1,60.6,55.5,94,75,55,30.25,30.16,5,1,0,0.00
2013-1-27,78.5,74.0,70.7,66.4,64.2,62.2,79,72,60,30.28,30.19,5,3,0,0.00
2013-1-28,79.1,75.3,72.7,67.3,65.5,63.2,79,72,62,30.32,30.23,6,3,5,0.00
2013-1-29,78.1,75.1,73.1,70.7,68.3,65.1,85,79,73,30.24,30.13,8,4,7,0.00
2013-1-30,77.8,74.9,72.8,69.7,67.4,65.2,87,78,70,30.12,29.97,11,5,16,0.00
2013-1-31,74.8,68.8,60.7,72.0,61.9,42.4,94,79,51,30.18,29.95,5,2,9,0.01
2013-2-1,72.6,64.6,54.1,58.3,50.5,41.4,70,60,51,30.26,30.16,8,4,13,0.00
2013-2-2,73.4,66.4,57.4,57.7,52.4,39.6,77,61,48,30.26,30.11,4,1,7,0.00
2013-2-3,75.5,65.1,56.5,57.0,52.4,46.0,91,65,37,30.17,30.06,5,1,8,0.00
2013-2-4,73.3,64.2,53.4,57.4,49.9,37.6,79,61,37,30.15,30.03,3,1,7,0.00
2013-2-5,76.3,68.2,56.6,64.7,60.0,54.1,93,76,61,30.09,30.01,6,2,11,0.00
2013-2-6,79.2,71.9,63.2,68.1,64.8,61.7,95,79,66,30.11,30.02,5,1,8,0.00
2013-2-7,77.8,74.3,71.4,68.2,65.9,63.8,85,75,68,30.08,29.95,8,3,13,0.00
2013-2-8,84.4,75.0,69.4,72.4,69.4,66.2,94,83,63,30.03,29.92,7,3,13,0.01
2013-2-9,78.5,71.3,64.6,67.9,64.1,58.8,94,78,70,30.17,30.01,5,2,9,0.09
2013-2-10,75.3,72.7,71.3,66.1,63.5,60.4,81,73,64,30.25,30.15,5,4,10,0.01
2013-2-11,76.6,73.8,71.3,67.3,65.6,63.0,79,76,70,30.23,30.12,7,5,11,0.00
2013-2-12,79.3,75.2,70.9,71.1,68.6,66.3,89,80,71,30.12,29.99,10,4,13,0.00
2013-2-13,81.6,76.3,72.0,73.5,71.4,69.2,93,85,73,30.02,29.91,11,4,18,0.00
2013-2-14,82.4,73.4,63.4,74.0,69.3,61.9,95,87,65,30.02,29.86,9,2,14,0.90
2013-2-15,73.3,67.1,63.7,69.2,65.5,62.2,97,94,84,30.02,29.94,5,1,8,1.46
2013-2-16,75.1,65.9,55.0,64.9,57.5,46.4,97,77,40,30.08,29.88,8,3,20,0.02
2013-2-17,59.6,52.8,45.6,46.7,30.6,21.5,76,45,25,30.31,30.08,6,2,14,0.00
2013-2-18,69.4,60.5,48.2,58.2,47.9,37.4,72,63,53,30.32,30.21,5,3,10,0.00
2013-2-19,75.6,71.6,67.7,67.2,63.3,56.6,91,75,65,30.20,30.09,10,5,15,0.00
2013-2-20,76.3,70.9,66.0,69.1,65.8,59.8,95,84,59,30.11,30.02,5,1,9,0.00
2013-2-21,78.6,74.6,71.2,69.7,67.4,65.2,87,78,69,30.09,29.99,6,2,10,0.00
2013-2-22,79.3,75.7,73.3,72.4,70.9,68.4,89,85,79,30.10,30.01,8,4,14,0.00
2013-2-23,80.3,76.6,73.5,73.4,71.6,69.4,92,85,78,30.05,29.93,11,6,20,0.00
2013-2-24,84.0,76.6,72.4,75.2,72.5,69.8,96,88,72,30.00,29.90,8,2,12,0.00
2013-2-25,80.9,76.3,70.2,74.4,72.3,68.4,96,88,79,29.92,29.82,12,4,18,0.00
2013-2-26,83.8,79.0,76.0,74.0,72.9,71.5,90,82,71,29.91,29.81,9,5,12,0.00
2013-2-27,78.3,71.9,66.0,73.6,67.8,64.1,95,87,67,29.97,29.86,4,1,7,0.29
2013-2-28,72.8,66.0,60.7,64.8,55.6,50.1,95,71,48,30.00,29.90,3,2,8,0.00
2013-3-1,66.3,63.1,59.1,57.6,53.1,48.1,85,70,62,29.99,29.90,4,1,11,0.00
2013-3-2,67.4,58.7,53.4,48.8,44.3,39.4,72,60,43,30.04,29.95,6,2,16,0.00
2013-3-3,63.5,56.1,50.7,47.8,43.8,41.5,80,64,47,30.14,29.97,9,3,13,0.00
2013-3-4,64.5,55.2,44.0,46.8,41.3,35.1,77,61,37,30.22,30.12,4,2,11,0.00
2013-3-5,72.2,63.4,51.5,58.8,54.2,44.6,93,73,61,30.18,30.09,8,2,13,0.00
2013-3-6,77.9,66.6,53.7,65.3,53.0,31.3,90,65,29,30.10,29.95,10,4,14,0.00
2013-3-7,69.1,59.2,48.3,55.4,45.4,37.0,84,61,44,30.18,30.07,4,2,8,0.00
2013-3-8,73.2,64.4,55.4,56.0,53.3,46.5,90,69,43,30.20,30.10,5,2,8,0.00
2013-3-9,73.1,66.0,57.0,60.1,55.1,50.7,85,68,59,30.19,30.10,7,3,13,0.00
2013-3-10,74.9,70.8,67.2,62.4,57.6,53.8,74,63,56,30.17,30.07,5,3,8,0.00
2013-3-11,75.6,72.3,69.7,64.4,62.1,59.4,76,71,63,30.10,29.96,7,4,11,0.00
2013-3-12,78.6,74.5,71.2,70.7,67.0,63.1,85,78,68,30.01,29.92,11,5,15,0.00
2013-3-13,75.0,66.9,58.0,66.3,58.0,49.9,90,74,52,30.12,29.98,7,3,11,0.00
2013-3-14,70.8,62.6,55.9,53.4,48.2,35.1,83,62,27,30.20,30.09,9,3,14,0.00
2013-3-15,71.0,63.3,54.4,56.4,50.8,43.4,79,64,51,30.26,30.16,6,2,7,0.00
2013-3-16,73.3,65.8,55.1,57.7,55.1,52.2,92,70,54,30.20,30.10,6,2,11,0.00
2013-3-17,74.7,69.0,58.8,63.1,59.4,55.3,90,72,61,30.15,30.02,8,3,10,0.00
2013-3-18,76.9,73.2,69.0,70.7,66.8,62.3,93,81,74,30.08,29.97,11,5,15,0.05
2013-3-19,80.7,73.0,68.8,70.7,68.6,65.7,96,87,61,30.02,29.84,7,2,8,0.03
2013-3-20,78.8,72.1,64.6,71.0,66.2,59.3,97,83,58,29.98,29.80,8,2,14,0.00
2013-3-21,73.1,67.4,61.6,61.8,57.3,49.0,92,71,43,29.95,29.83,6,2,11,0.00
2013-3-22,75.6,69.7,59.3,71.2,62.1,53.9,91,77,63,30.01,29.90,8,3,12,0.00
2013-3-23,82.1,77.0,73.0,75.1,72.9,71.2,94,88,73,29.99,29.82,11,4,17,0.00
2013-3-24,88.4,80.2,74.9,74.6,72.8,70.1,95,80,56,29.89,29.70,15,6,25,0.01
2013-3-25,81.4,75.5,66.3,73.3,61.7,42.3,94,66,37,29.99,29.75,5,2,8,0.07
2013-3-26,68.9,62.6,53.1,46.0,39.2,32.2,63,43,27,30.21,29.99,6,3,15,0.00
2013-3-27,68.1,57.9,47.2,50.2,43.3,36.2,70,59,46,30.25,30.16,6,2,9,0.00
2013-3-28,70.5,62.7,53.4,51.4,46.2,37.2,72,56,36,30.26,30.17,6,2,12,0.00
2013-3-29,74.0,66.2,58.5,55.6,51.2,42.7,65,59,48,30.28,30.20,6,2,11,0.00
2013-3-30,74.2,69.7,66.2,57.4,54.3,50.3,66,58,45,30.26,30.16,4,2,8,0.00
2013-3-31,77.4,73.0,68.6,67.9,63.6,55.9,83,72,63,30.20,30.05,9,4,14,0.00
2013-4-1,86.5,75.7,71.6,72.0,68.6,63.2,89,79,49,30.06,29.95,10,4,14,0.00
2013-4-2,80.3,73.9,66.2,68.9,66.7,64.6,96,79,62,30.08,29.99,4,2,7,0.00
2013-4-3,79.7,76.0,72.6,71.6,69.6,67.2,87,81,74,30.06,29.99,9,3,13,0.00
2013-4-4,80.3,75.6,68.8,73.9,71.0,66.5,96,86,78,30.04,29.91,12,6,17,0.54
2013-4-5,74.4,68.7,65.6,71.8,66.3,63.8,97,92,82,29.99,29.81,8,2,14,1.73
2013-4-6,76.8,69.1,59.7,67.7,62.3,58.0,95,80,68,30.08,29.92,8,3,13,0.00
2013-4-7,74.5,72.7,68.8,67.7,65.0,63.1,92,77,70,30.14,30.01,5,3,9,0.29
2013-4-8,79.0,74.9,70.0,66.0,63.4,61.6,77,68,57,30.13,30.04,4,2,7,0.00
2013-4-9,79.9,75.8,73.6,70.8,67.8,65.5,87,76,70,30.15,30.04,5,3,9,0.08
2013-4-10,82.1,77.5,74.2,74.0,71.5,67.6,87,82,75,30.10,30.00,6,3,10,0.00
2013-4-11,80.7,78.0,75.2,74.4,72.7,71.1,90,84,77,30.02,29.91,10,6,17,0.01
2013-4-12,83.0,79.8,77.6,77.2,75.3,73.7,91,86,79,29.95,29.87,13,6,18,0.07
2013-4-13,83.4,78.5,74.6,75.9,73.8,71.3,92,86,68,29.99,29.88,7,2,11,0.74
2013-4-14,83.0,79.6,76.9,75.7,74.9,73.6,93,86,76,29.97,29.90,9,5,14,0.00
2013-4-15,84.1,78.7,72.3,77.5,74.8,69.6,93,88,77,30.06,29.92,9,3,11,0.67
2013-4-16,84.7,79.1,72.9,76.6,74.1,69.3,95,85,74,30.11,30.01,7,2,9,0.00
2013-4-17,82.1,78.8,76.5,73.7,71.8,70.0,87,80,70,30.10,30.01,7,4,13,0.00
2013-4-18,83.9,80.0,76.9,74.9,72.4,70.2,84,78,70,30.06,29.97,8,3,11,0.00
2013-4-19,83.4,80.7,78.2,75.6,73.8,70.9,88,80,71,30.05,29.97,11,6,14,0.00
2013-4-20,84.9,78.9,72.1,77.5,74.1,69.3,93,86,72,30.08,29.94,9,3,12,0.41
2013-4-21,80.4,74.6,72.9,73.9,72.1,70.5,95,92,75,30.09,29.99,4,1,10,0.14
2013-4-22,81.6,74.7,69.7,73.9,70.7,68.2,95,88,73,30.05,29.92,5,1,0,0.34
2013-4-23,81.1,73.7,68.4,71.5,67.7,62.0,95,83,64,30.09,29.95,11,3,16,0.01
2013-4-24,81.9,78.2,73.9,69.6,66.7,61.8,73,68,63,30.14,30.03,7,4,9,0.00
2013-4-25,80.1,76.6,73.8,65.3,63.7,61.5,72,65,55,30.19,30.07,6,3,10,0.00
2013-4-26,80.2,76.2,72.3,68.1,65.3,62.4,75,69,63,30.22,30.11,8,4,12,0.00
2013-4-27,80.6,76.7,73.3,69.7,66.0,63.2,83,70,62,30.20,30.08,7,4,12,0.00
2013-4-28,81.8,77.4,74.6,68.5,66.2,63.3,79,69,61,30.11,30.00,5,4,10,0.00
2013-4-29,82.1,77.7,75.6,72.2,69.1,64.9,84,75,69,30.04,29.95,7,4,12,0.00
2013-5-1,82.9,76.4,71.0,74.7,72.1,68.6,93,87,74,30.00,29.91,5,1,11,0.74
2013-5-2,80.0,74.3,67.2,73.8,70.8,66.0,97,89,79,29.95,29.78,9,4,18,5.49
2013-5-3,83.7,75.3,68.0,72.9,69.6,66.8,97,83,60,29.81,29.68,9,3,10,0.01
2013-5-4,87.9,77.7,68.9,70.6,68.2,65.7,95,75,51,29.81,29.69,8,3,15,0.00
2013-5-5,83.3,74.3,69.0,68.0,65.6,61.9,92,76,50,29.89,29.76,8,4,13,0.00
2013-5-7,77.3,74.3,71.1,61.2,59.9,58.9,71,61,55,30.07,30.02,4,2,7,0.00
2013-5-8,82.0,73.9,63.9,69.8,63.3,57.5,90,71,46,30.14,30.05,6,2,8,0.00
2013-5-9,84.2,77.0,66.8,75.2,68.6,59.1,86,76,63,30.15,30.07,5,2,12,0.00
2013-5-10,85.0,79.8,74.0,75.6,72.7,67.8,90,79,67,30.13,30.03,7,3,11,0.11
2013-5-19,81.3,79.4,78.8,72.9,71.7,69.9,82,78,69,30.07,30.00,3,2,8,0.00
2013-5-20,80.9,76.6,71.3,75.1,73.0,69.3,96,89,79,30.07,29.97,7,2,9,4.65
2013-5-21,82.6,76.7,72.2,74.6,72.2,68.9,95,86,70,30.04,29.92,7,2,13,0.59
2013-5-22,82.0,75.6,70.9,77.0,72.8,69.1,97,91,85,29.96,29.90,9,2,14,1.73
2013-5-23,92.8,81.8,74.6,77.9,74.3,67.4,93,79,48,30.01,29.92,6,2,0,0.00
2013-5-24,89.6,81.7,74.9,77.5,75.1,72.5,93,81,60,30.06,29.94,5,2,0,0.00
2013-5-25,83.6,80.3,75.0,75.0,70.2,66.8,89,72,60,30.16,30.03,10,4,0,0.00
2013-5-26,83.6,79.6,76.6,70.8,68.2,65.2,78,68,59,30.17,30.10,9,4,0,0.00
2013-5-27,84.6,80.0,77.2,74.8,71.8,67.6,84,76,71,30.15,30.06,7,4,13,0.00
2013-5-28,83.8,78.5,74.7,75.3,73.4,71.7,93,85,75,30.10,30.03,6,4,12,1.40
2013-5-29,80.2,76.7,73.1,74.8,72.4,68.7,95,87,77,30.09,30.02,8,4,13,2.89
2013-5-30,83.3,79.1,76.7,75.8,73.2,69.8,89,82,76,30.07,30.00,7,4,13,0.06
2013-5-31,84.8,79.6,75.4,77.1,74.7,72.0,92,85,76,30.06,29.99,5,3,10,0.13
2013-6-1,83.9,78.4,75.0,77.9,75.0,72.5,95,89,79,30.03,29.95,7,2,10,0.18
2013-6-2,87.4,79.5,73.8,77.4,74.7,72.6,97,86,67,30.00,29.92,6,1,9,0.00
2013-6-3,84.8,80.0,74.5,77.1,74.5,72.2,94,84,74,30.03,29.91,7,2,9,0.01
2013-6-4,84.5,78.6,73.1,78.3,75.0,71.2,97,89,73,30.04,29.96,7,1,8,0.44
2013-6-5,84.3,81.4,79.8,78.4,76.7,74.9,89,86,82,30.02,29.89,4,2,9,0.00
2013-6-6,87.8,81.0,75.2,79.3,76.7,72.3,94,87,72,29.92,29.80,11,6,16,0.80
2013-6-7,87.4,77.4,72.0,79.1,74.6,70.7,98,91,72,30.02,29.85,9,3,15,6.44
2013-6-8,86.6,80.5,74.3,79.8,76.5,72.4,96,88,76,30.10,29.96,7,3,10,0.00
2013-6-9,87.2,82.9,80.2,77.9,76.3,74.6,86,81,72,30.11,30.03,6,3,9,0.00
2013-6-10,87.8,83.5,80.4,79.3,77.3,75.7,88,82,74,30.09,30.01,4,3,8,0.00
2013-6-11,87.2,82.7,79.5,78.6,77.1,73.8,91,84,68,30.09,30.01,7,2,11,0.00
2013-6-12,87.3,80.5,77.9,79.8,76.9,74.3,97,89,77,30.08,30.01,4,1,6,0.50
2013-6-13,87.6,80.7,75.7,78.1,75.5,71.7,97,85,66,30.07,29.94,6,1,7,0.01
2013-6-14,91.0,80.8,75.1,77.9,74.5,71.8,94,82,56,29.98,29.87,9,2,13,0.68
2013-6-15,88.2,82.2,75.5,78.0,75.8,74.0,96,82,69,30.05,29.93,5,1,7,0.00
2013-6-16,88.9,83.4,76.0,79.6,76.9,74.2,96,81,70,30.09,30.01,5,2,9,0.00
2013-6-17,88.5,84.7,81.7,78.7,76.8,74.9,84,77,69,30.07,30.00,6,3,9,0.00
2013-6-18,88.3,84.5,81.2,78.8,77.2,76.0,85,79,71,30.07,30.00,7,4,11,0.00
2013-6-19,88.6,84.2,80.8,78.6,77.1,75.8,88,80,70,30.05,29.99,7,3,10,0.00
2013-6-20,86.1,79.0,73.4,77.8,74.3,70.2,95,86,74,30.08,30.01,8,2,11,1.84
2013-6-21,88.5,84.4,81.5,77.3,75.5,73.4,85,75,65,30.12,30.03,6,3,10,0.00
2013-6-22,88.4,84.1,80.8,77.7,75.6,73.2,85,76,68,30.10,30.03,5,2,9,0.00
2013-6-23,88.9,84.2,79.8,77.6,75.5,70.4,84,76,64,30.12,30.04,6,3,9,0.00
2013-6-24,88.6,84.0,80.1,77.4,75.4,72.7,84,76,65,30.16,30.07,5,3,9,0.02
2013-6-25,88.4,83.7,81.0,79.4,76.4,73.7,85,79,71,30.13,30.03,7,3,11,0.04
2013-6-26,88.3,84.1,79.4,77.3,76.1,74.4,88,77,68,30.08,30.01,7,3,10,0.00
2013-6-27,88.2,83.6,81.9,79.1,76.2,74.5,84,78,70,30.05,29.96,4,2,7,0.01
2013-6-28,88.9,83.7,78.2,77.8,75.8,72.7,90,78,60,30.00,29.87,7,3,10,0.00
2013-6-29,88.4,82.4,78.0,78.6,76.2,72.7,90,82,70,29.93,29.84,8,2,11,0.19
2013-6-30,88.6,82.1,78.3,77.7,75.7,72.7,89,81,62,29.95,29.85,12,4,16,0.47
2013-7-1,86.8,82.6,79.6,78.6,76.9,75.1,90,83,74,30.03,29.92,10,5,14,0.00
2013-7-2,86.8,82.1,77.3,79.9,77.0,72.8,90,85,76,30.11,29.98,7,3,13,0.24
2013-7-3,86.8,82.1,78.6,78.5,76.7,73.9,90,84,75,30.13,30.05,9,4,14,0.05
2013-7-4,83.8,81.7,81.2,77.2,76.0,74.7,86,83,77,30.13,30.07,4,2,8,0.01
2013-7-5,85.8,82.6,78.8,78.8,76.4,72.6,90,82,73,30.14,30.05,6,3,9,0.55
2013-7-6,88.3,83.7,79.9,77.6,75.9,72.8,85,78,68,30.12,30.02,4,3,9,0.03
2013-7-7,87.2,83.8,81.0,78.0,76.1,74.6,84,78,72,30.09,30.02,5,3,14,0.03
2013-7-8,88.4,85.2,81.4,76.5,75.0,73.7,80,72,66,30.15,30.07,4,3,6,0.00
2013-7-9,86.1,80.8,75.1,76.8,74.0,70.9,95,80,68,30.14,30.05,5,2,8,0.26
2013-7-10,84.6,79.4,74.5,77.6,74.8,72.4,95,86,76,30.08,30.00,4,1,9,0.05
2013-7-11,88.3,83.8,80.7,78.9,76.2,72.9,87,78,70,30.04,29.95,6,2,8,0.00
2013-7-12,88.0,81.3,76.1,77.6,74.7,69.7,92,81,66,29.99,29.91,8,1,10,0.11
2013-7-13,86.2,76.0,71.9,76.9,73.3,70.3,98,92,73,30.03,29.92,7,1,12,5.69
2013-7-14,87.2,78.9,72.1,77.0,74.1,70.0,98,86,67,30.09,29.99,7,2,11,0.43
2013-7-15,87.4,81.4,74.7,77.0,74.3,70.8,96,80,67,30.09,30.01,4,2,7,0.03
2013-7-16,82.4,78.6,73.0,75.2,73.1,70.2,95,84,68,30.14,30.04,7,4,16,1.87
2013-7-17,79.4,76.2,72.4,75.6,73.4,70.9,96,91,83,30.15,30.04,7,2,11,3.49
2013-7-18,84.3,76.0,72.2,78.8,73.8,70.4,97,93,78,30.13,30.05,4,1,5,1.59
2013-7-19,78.4,76.9,74.7,75.6,74.5,73.5,96,92,90,30.10,30.08,1,0,1,0.00
2013-7-20,86.5,82.7,78.4,79.8,77.2,71.1,90,83,69,30.12,30.04,10,3,0,0.00
2013-7-21,87.1,83.0,79.4,80.1,77.7,75.0,90,84,78,30.15,30.05,6,2,0,0.00
2013-7-22,87.1,83.6,81.2,78.0,76.7,75.4,88,80,70,30.15,30.07,8,3,9,0.00
2013-7-23,88.0,83.0,77.5,79.0,76.5,74.4,93,81,67,30.12,29.98,10,3,11,0.23
2013-7-24,91.0,84.5,78.8,79.5,76.3,72.5,92,77,58,30.03,29.91,8,3,11,0.00
2013-7-25,94.0,85.1,77.4,78.2,75.0,73.1,90,73,53,30.02,29.92,6,3,11,0.00
2013-7-26,92.7,83.1,76.5,79.5,76.4,73.2,92,81,59,30.03,29.93,8,3,11,0.17
2013-7-27,85.6,80.0,76.1,79.8,76.2,73.6,95,89,82,30.02,29.94,6,1,8,0.73
2013-7-28,88.7,82.7,76.3,78.1,76.4,73.5,93,82,68,30.08,29.96,5,2,8,0.01
2013-7-29,89.9,84.5,78.8,80.2,78.0,75.9,93,81,70,30.13,30.01,5,2,8,0.00
2013-7-30,88.5,84.2,78.5,80.2,78.3,74.5,93,83,74,30.17,30.07,5,2,7,0.83
2013-7-31,88.9,85.3,82.4,79.9,77.3,74.7,86,77,68,30.11,30.00,4,3,10,0.00
2013-8-1,88.0,84.2,80.8,77.3,75.8,74.5,84,76,68,30.06,29.94,5,3,8,0.00
2013-8-2,88.9,81.7,75.9,78.6,75.6,71.7,94,82,65,30.06,29.92,7,2,11,0.30
2013-8-3,86.9,78.8,74.8,79.9,75.7,72.0,95,90,74,30.13,30.02,8,1,13,0.36
2013-8-4,90.7,82.2,76.7,79.4,76.5,73.4,95,84,66,30.12,29.98,6,1,10,0.05
2013-8-5,90.2,82.2,78.8,80.2,76.6,72.5,92,83,67,30.04,29.95,8,1,10,0.05
2013-8-6,79.0,78.9,78.9,75.4,75.3,75.1,89,89,88,29.99,29.99,1,1,1,0.05
2013-8-20,84.1,84.0,83.8,78.2,77.8,77.6,83,82,81,30.06,30.05,3,3,4,0.00
2013-8-21,88.9,84.1,78.8,81.0,78.5,75.1,92,83,74,30.07,29.99,5,3,13,0.30
2013-8-22,89.3,85.5,81.7,80.6,78.4,75.5,87,80,72,30.07,29.95,5,3,8,0.00
2013-8-23,89.0,84.8,82.5,79.2,77.5,75.1,85,79,70,30.01,29.93,4,2,7,0.00
2013-8-24,89.6,85.1,82.0,79.4,77.5,74.3,86,78,70,30.10,29.97,4,2,11,0.05
2013-8-25,86.4,82.5,77.2,77.9,76.3,73.7,92,82,72,30.15,30.02,4,2,6,0.02
2013-8-26,87.8,82.5,78.4,77.9,75.3,72.7,87,79,71,30.12,30.01,11,2,14,0.00
2013-8-27,87.6,80.4,76.8,76.1,73.9,69.3,92,81,56,30.05,29.97,4,1,8,0.06
2013-8-28,86.4,81.6,74.4,77.4,75.2,71.5,94,81,64,30.04,29.94,5,2,6,0.82
2013-8-29,88.6,83.3,76.1,79.5,76.8,73.9,94,81,71,30.03,29.93,4,2,9,0.00
2013-8-30,89.3,83.2,77.5,77.5,75.6,72.0,93,78,62,30.01,29.90,7,2,10,0.00
2013-8-31,87.4,80.6,75.3,79.2,75.1,70.3,94,84,70,29.99,29.92,6,1,10,0.06
2013-9-1,88.0,82.5,76.2,79.3,77.0,74.0,95,84,74,30.00,29.92,5,1,9,0.00
2013-9-2,89.0,79.8,75.5,79.7,76.2,73.2,96,89,72,30.04,29.94,7,1,9,0.18
2013-9-3,88.3,81.2,74.3,80.1,76.5,72.8,96,86,72,30.02,29.93,4,1,7,0.00
2013-9-4,87.4,84.4,82.4,79.9,78.2,76.7,85,82,76,30.06,29.94,4,2,7,0.00
2013-9-5,89.8,84.0,75.3,80.1,78.2,73.5,97,83,71,30.07,29.99,6,2,12,0.77
2013-9-6,89.6,85.3,82.8,79.9,77.9,75.7,86,79,68,30.03,29.92,4,2,8,0.00
2013-9-7,87.1,82.0,77.1,77.8,75.8,72.7,89,82,70,29.99,29.89,6,1,14,0.02
2013-9-8,88.6,80.7,74.8,78.3,75.1,72.2,95,83,66,29.95,29.85,5,1,7,0.09
2013-9-9,88.0,82.8,76.6,77.9,76.2,74.1,93,81,69,29.99,29.89,5,2,8,0.00
2013-9-10,88.4,83.3,78.6,78.9,76.5,73.4,91,80,70,30.04,29.94,8,3,15,0.13
2013-9-11,88.3,82.2,78.1,78.3,76.2,73.1,92,82,71,30.05,29.96,8,2,9,0.34
2013-9-12,85.0,81.3,77.3,78.9,76.6,73.4,95,86,71,30.03,29.89,3,1,5,0.18
2013-9-13,89.0,83.2,75.7,78.3,75.7,73.1,95,79,62,29.90,29.81,5,2,7,0.00
2013-9-14,88.7,84.1,77.2,78.5,76.7,74.4,93,79,66,29.97,29.83,4,2,7,0.00
2013-9-15,84.3,81.4,77.4,79.6,77.2,73.9,95,87,74,30.05,29.92,11,2,15,1.15
2013-9-16,84.4,81.8,78.9,78.5,76.5,73.6,91,84,76,30.04,29.95,5,3,9,0.23
2013-9-17,83.2,80.0,73.7,78.6,76.0,71.6,97,88,81,30.02,29.91,7,3,18,2.17
2013-9-18,85.5,80.6,75.0,78.3,76.0,73.1,95,86,78,30.01,29.91,5,1,10,0.27
2013-9-19,87.7,80.9,75.2,78.8,75.5,72.9,95,84,72,30.00,29.92,6,2,12,0.16
2013-9-20,85.5,81.8,76.3,75.0,72.5,70.0,92,74,63,29.99,29.89,7,3,11,0.30
2013-9-21,87.2,82.3,76.4,76.8,74.7,72.6,90,78,69,29.91,29.78,4,2,8,0.00
2013-9-22,88.9,82.8,77.8,79.1,76.9,75.0,92,83,69,29.87,29.77,8,2,10,0.38
2013-9-23,86.3,81.4,76.6,79.4,77.2,74.4,94,87,76,29.98,29.86,6,1,9,0.21
2013-9-24,90.4,82.6,77.6,81.3,77.2,72.0,95,84,67,29.97,29.87,9,2,13,0.02
2013-9-25,88.1,80.5,76.0,79.8,75.7,71.7,93,86,73,29.92,29.81,6,2,18,0.23
2013-9-26,90.8,81.8,77.7,80.3,77.2,75.2,93,86,67,29.87,29.80,9,3,16,0.20
2013-9-27,90.5,81.6,75.2,77.3,74.5,70.1,96,80,53,29.92,29.81,6,2,13,0.00
2013-9-28,86.9,80.3,75.2,76.8,74.2,72.4,94,82,67,29.97,29.87,7,2,15,0.60
2013-9-29,86.7,81.2,74.4,75.8,72.7,70.6,94,76,61,29.97,29.88,5,2,6,0.04
2013-9-30,87.6,83.0,79.5,75.6,73.2,70.6,80,72,64,30.00,29.89,4,2,7,0.00
2013-10-1,87.1,83.2,80.9,76.6,74.5,72.1,81,75,68,30.02,29.95,6,3,9,0.00
2013-10-2,82.2,80.6,75.6,76.8,75.2,73.2,96,84,75,30.04,29.96,5,3,9,2.17
2013-10-3,85.7,80.7,75.3,78.0,75.1,72.8,95,83,75,30.05,29.94,5,2,9,0.62
2013-10-4,86.4,82.2,79.8,75.4,73.3,70.9,82,75,67,30.05,29.98,4,2,9,0.00
2013-10-5,87.1,81.9,73.9,75.8,73.5,70.5,90,76,63,30.02,29.93,4,2,6,0.00
2013-10-6,88.0,82.9,76.7,76.1,73.8,70.9,92,75,63,29.97,29.87,5,2,8,0.01
2013-10-7,89.1,80.9,74.3,78.3,73.8,71.7,95,80,58,29.91,29.81,8,2,14,0.57
2013-10-8,88.6,81.9,76.8,79.0,75.7,71.7,93,82,68,29.94,29.85,6,2,10,0.08
2013-10-9,86.9,78.9,72.1,77.6,73.7,70.0,94,84,72,29.99,29.90,5,2,9,0.03
2013-10-10,85.6,79.8,73.2,75.4,73.1,69.6,96,81,68,30.01,29.93,7,3,12,0.02
2013-10-11,84.4,80.4,73.9,72.5,70.2,67.6,86,71,64,30.02,29.94,6,3,12,0.00
2013-10-12,85.1,79.5,70.9,72.8,69.6,67.3,91,72,61,30.03,29.94,4,2,9,0.00
2013-10-13,85.6,80.2,73.6,72.9,68.9,65.7,89,69,54,30.05,29.96,7,2,15,0.00
2013-10-14,84.7,79.6,71.8,72.5,69.5,67.7,89,72,59,30.02,29.91,5,2,8,0.00
2013-10-15,83.9,79.4,72.5,74.0,71.3,68.9,92,77,67,29.95,29.87,5,2,8,0.00
2013-10-16,84.1,79.1,73.7,74.6,71.4,69.1,91,78,67,29.95,29.88,4,2,7,0.00
2013-10-17,86.1,80.5,73.2,74.8,72.7,70.2,92,77,65,29.97,29.89,4,1,7,0.00
2013-10-18,86.8,81.8,74.9,75.6,73.4,71.4,91,76,67,29.99,29.90,3,2,6,0.00
2013-10-19,86.1,82.4,78.9,77.0,74.6,72.4,83,77,71,29.97,29.88,5,3,9,0.00
2013-10-20,87.9,81.0,76.2,79.0,76.2,73.9,96,86,74,29.97,29.88,5,2,8,1.72
2013-10-21,86.9,82.6,77.6,78.3,76.6,74.4,92,82,73,30.00,29.91,6,2,8,0.00
2013-10-22,88.3,82.3,77.7,79.1,76.7,74.5,93,83,68,29.97,29.84,8,2,12,0.25
2013-10-23,84.5,79.1,76.9,77.5,74.7,70.7,93,87,78,29.95,29.82,5,1,9,0.70
2013-10-24,80.7,77.2,74.0,71.0,68.1,65.1,81,74,64,30.09,29.92,8,3,10,0.00
2013-10-25,82.3,77.4,71.0,69.7,66.2,64.0,86,69,60,30.14,30.05,8,4,15,0.01
2013-10-26,82.4,78.4,76.2,67.0,65.0,61.6,68,63,57,30.15,30.05,7,4,11,0.00
2013-10-27,82.1,75.8,68.4,68.5,64.9,61.9,81,69,57,30.09,30.02,5,2,8,0.00
2013-10-28,83.3,78.8,75.6,70.4,66.6,63.8,72,66,53,30.14,30.05,5,3,8,0.00
2013-10-29,83.7,79.6,76.8,72.6,69.0,66.2,74,70,64,30.17,30.08,7,4,12,0.00
2013-10-30,83.3,79.7,77.3,71.0,69.0,66.6,77,70,62,30.18,30.08,6,4,10,0.01
2013-10-31,85.8,80.9,78.4,74.1,71.6,67.6,82,74,65,30.11,29.99,5,3,7,0.00
2013-11-2,89.2,82.9,75.6,72.4,70.3,67.4,83,67,51,29.91,29.81,4,2,8,0.00
2013-11-3,82.2,75.4,69.1,69.8,65.1,62.8,84,71,59,30.02,29.89,10,4,16,0.00
2013-11-4,81.8,77.8,76.0,70.0,66.2,59.2,78,68,51,30.06,29.99,12,7,19,0.01
2013-11-5,81.9,78.8,75.9,73.3,70.3,66.9,85,75,68,30.09,30.01,9,6,16,0.00
2013-11-6,83.4,79.6,77.4,73.1,71.7,70.6,81,77,68,30.06,29.99,7,4,13,0.00
2013-11-7,84.4,77.3,71.2,73.4,71.0,68.1,91,81,68,30.02,29.92,5,2,10,0.00
2013-11-8,83.4,76.1,71.8,74.5,71.7,68.2,96,87,68,30.04,29.93,8,3,13,1.00
2013-11-9,80.8,77.6,74.7,74.5,73.1,71.7,93,86,80,30.11,30.00,9,6,15,0.12
2013-11-10,83.4,79.4,77.4,73.6,71.8,69.4,87,78,71,30.12,30.04,7,5,12,0.00
2013-11-11,82.7,79.1,77.5,73.6,70.7,67.7,81,75,71,30.11,30.04,6,4,9,0.00
2013-11-12,82.9,78.1,71.6,72.7,70.1,68.3,91,77,69,30.08,29.97,5,2,8,0.00
2013-11-13,78.5,72.9,69.1,69.5,65.6,60.6,93,78,66,30.20,29.99,13,6,23,0.51
2013-11-14,76.5,73.4,71.1,66.0,61.6,57.8,75,67,62,30.24,30.13,13,6,17,0.00
2013-11-15,81.9,77.6,74.5,71.0,67.6,63.1,80,71,63,30.14,30.02,6,4,12,0.23
2013-11-16,80.1,78.2,73.4,73.6,70.3,65.7,90,77,65,30.10,30.01,8,3,12,0.09
2013-11-17,84.2,79.8,77.4,73.9,71.7,69.4,82,77,68,30.08,30.00,5,2,10,0.00
2013-11-18,83.3,79.0,74.8,74.3,71.9,70.6,90,79,70,30.03,29.92,4,1,6,0.00
2013-11-19,83.5,76.5,72.6,74.9,72.4,70.0,95,87,72,29.94,29.85,4,1,5,0.17
2013-11-20,81.5,75.3,70.9,76.1,72.4,69.9,97,91,81,30.06,29.92,3,0,6,0.68
2013-11-21,83.9,76.2,71.5,76.3,72.8,70.3,98,90,70,30.13,30.04,7,2,11,2.46
2013-11-22,75.3,74.3,73.7,73.3,72.3,71.2,95,94,92,30.12,30.11,5,3,11,0.63
2014-1-2,84.0,78.3,73.3,72.9,70.7,68.5,92,78,66,30.04,29.88,8,4,0,0.00